TimeCDT,TemperatureF,Dew PointF,Humidity,Sea Level PressureIn,VisibilityMPH,Wind Direction,Wind SpeedMPH,Gust SpeedMPH,PrecipitationIn,Events,Conditions,WindDirDegrees,DateUTC
12:53 AM,37.9,33.1,83,30.35,10.0,NW,5.8,-,N/A,,Scattered Clouds,310,2013-05-03 05:53:00
1:53 AM,41.0,30.9,67,30.32,10.0,North,10.4,-,N/A,,Overcast,350,2013-05-03 06:53:00
2:53 AM,39.2,30.2,70,30.28,10.0,North,11.5,-,N/A,,Overcast,360,2013-05-03 07:53:00
3:53 AM,39.0,28.9,67,30.28,10.0,North,11.5,-,N/A,,Mostly Cloudy,350,2013-05-03 08:53:00
4:53 AM,37.9,30.0,73,30.27,10.0,North,11.5,-,N/A,,Overcast,350,2013-05-03 09:53:00
5:53 AM,35.1,28.9,78,30.28,10.0,NNW,6.9,-,N/A,,Overcast,330,2013-05-03 10:53:00
6:53 AM,34.0,28.0,79,30.27,10.0,NW,10.4,-,N/A,,Overcast,320,2013-05-03 11:53:00
7:53 AM,35.1,28.9,78,30.27,10.0,NNW,13.8,-,N/A,,Partly Cloudy,330,2013-05-03 12:53:00
8:53 AM,37.0,30.0,76,30.25,10.0,NNW,13.8,18.4,N/A,,Partly Cloudy,340,2013-05-03 13:53:00
9:53 AM,39.0,30.0,70,30.21,10.0,North,15.0,-,N/A,,Overcast,350,2013-05-03 14:53:00
10:53 AM,41.0,30.0,65,30.19,10.0,North,15.0,23.0,N/A,,Overcast,360,2013-05-03 15:53:00
11:53 AM,43.0,30.0,60,30.18,10.0,North,15.0,25.3,N/A,,Mostly Cloudy,360,2013-05-03 16:53:00
12:14 PM,42.8,30.2,61,30.16,10.0,North,16.1,26.5,N/A,,Mostly Cloudy,350,2013-05-03 17:14:00
12:24 PM,44.6,30.2,57,30.15,10.0,North,18.4,27.6,N/A,,Overcast,350,2013-05-03 17:24:00
12:53 PM,44.1,32.0,63,30.16,10.0,North,15.0,24.2,N/A,,Overcast,360,2013-05-03 17:53:00
1:04 PM,44.6,30.2,57,30.14,10.0,North,12.7,23.0,N/A,,Overcast,350,2013-05-03 18:04:00
1:53 PM,44.1,30.9,60,30.12,10.0,NNE,19.6,31.1,N/A,,Overcast,20,2013-05-03 18:53:00
2:53 PM,43.0,28.9,58,30.11,10.0,North,19.6,25.3,N/A,,Overcast,10,2013-05-03 19:53:00
3:53 PM,42.1,28.9,60,30.10,10.0,North,20.7,26.5,N/A,,Overcast,360,2013-05-03 20:53:00
4:53 PM,43.0,30.0,60,30.08,10.0,North,19.6,24.2,N/A,,Overcast,360,2013-05-03 21:53:00
5:53 PM,42.1,30.0,62,30.07,10.0,North,17.3,26.5,N/A,,Overcast,10,2013-05-03 22:53:00
6:53 PM,39.9,33.1,77,30.07,10.0,North,16.1,21.9,0.00,Rain,Light Rain,10,2013-05-03 23:53:00
7:00 PM,39.2,33.8,81,30.05,10.0,North,9.2,21.9,0.00,Rain,Light Rain,10,2013-05-04 00:00:00
7:18 PM,39.2,33.8,81,30.05,10.0,North,17.3,23.0,0.00,Rain,Light Rain,350,2013-05-04 00:18:00
7:53 PM,39.9,33.1,77,30.06,10.0,North,9.2,-,0.00,,Overcast,360,2013-05-04 00:53:00
8:53 PM,39.9,34.0,79,30.04,10.0,North,12.7,-,0.00,,Overcast,360,2013-05-04 01:53:00
9:53 PM,39.9,33.1,77,30.04,10.0,North,15.0,21.9,N/A,,Overcast,360,2013-05-04 02:53:00
10:53 PM,39.0,33.1,79,30.00,10.0,North,19.6,29.9,N/A,,Overcast,360,2013-05-04 03:53:00
11:00 PM,37.4,32.0,81,29.98,10.0,North,18.4,28.8,0.01,,Overcast,360,2013-05-04 04:00:00
11:15 PM,37.4,33.8,87,29.98,10.0,North,17.3,26.5,0.01,,Overcast,360,2013-05-04 04:15:00
11:53 PM,37.0,32.0,82,29.99,10.0,North,16.1,27.6,0.01,,Overcast,360,2013-05-04 04:53:00